TimeEDT,TemperatureF,Dew PointF,Humidity,Sea Level PressureIn,VisibilityMPH,Wind Direction,Wind SpeedMPH,Gust SpeedMPH,PrecipitationIn,Events,Conditions,WindDirDegrees,DateUTC
12:53 AM,73.4,73.4,100,30.05,10.0,SW,3.5,-,N/A,,Mostly Cloudy,230,2012-09-23 04:53:00
1:53 AM,73.4,73.4,100,30.04,10.0,WSW,3.5,-,N/A,,Partly Cloudy,250,2012-09-23 05:53:00
2:53 AM,73.4,73.4,100,30.04,10.0,NW,8.1,-,N/A,,Partly Cloudy,310,2012-09-23 06:53:00
3:53 AM,71.6,71.6,100,30.03,10.0,NW,6.9,-,N/A,,Partly Cloudy,320,2012-09-23 07:53:00
4:53 AM,73.4,73.4,100,30.04,10.0,NW,5.8,-,N/A,,Scattered Clouds,320,2012-09-23 08:53:00
5:53 AM,73.4,73.4,100,30.05,10.0,WNW,12.7,-,N/A,,Scattered Clouds,300,2012-09-23 09:53:00
6:53 AM,75.2,73.4,94,30.06,10.0,NNW,5.8,-,N/A,,Scattered Clouds,330,2012-09-23 10:53:00
7:53 AM,77.0,71.6,83,30.07,10.0,NW,5.8,-,N/A,,Scattered Clouds,320,2012-09-23 11:53:00
8:53 AM,80.6,75.2,84,30.06,10.0,NW,6.9,-,N/A,,Mostly Cloudy,320,2012-09-23 12:53:00
9:53 AM,80.1,72.0,76,30.08,10.0,NNW,5.8,-,N/A,,Clear,340,2012-09-23 13:53:00
10:53 AM,84.0,70.0,63,30.08,10.0,NNW,3.5,-,N/A,,Clear,330,2012-09-23 14:53:00
11:53 AM,86.0,69.1,57,30.07,10.0,NNW,6.9,-,N/A,,Clear,330,2012-09-23 15:53:00
12:53 PM,89.6,69.8,52,30.08,10.0,North,9.2,-,N/A,,Scattered Clouds,350,2012-09-23 16:53:00
1:53 PM,89.6,66.2,46,30.06,10.0,North,10.4,-,N/A,,Scattered Clouds,350,2012-09-23 17:53:00
2:53 PM,91.4,66.2,43,30.04,10.0,NE,11.5,-,N/A,,Scattered Clouds,50,2012-09-23 18:53:00
3:53 PM,93.2,62.6,36,30.02,10.0,NNE,5.8,-,N/A,,Scattered Clouds,30,2012-09-23 19:53:00
4:53 PM,93.2,62.6,36,30.01,10.0,North,5.8,-,N/A,,Mostly Cloudy,360,2012-09-23 20:53:00
5:53 PM,89.6,62.6,40,30.04,10.0,NNE,4.6,-,N/A,,Mostly Cloudy,30,2012-09-23 21:53:00
6:53 PM,86.0,62.6,45,30.02,10.0,North,3.5,-,N/A,,Mostly Cloudy,350,2012-09-23 22:53:00
7:53 PM,82.4,68.0,62,30.04,10.0,East,11.5,-,N/A,,Mostly Cloudy,80,2012-09-23 23:53:00
8:53 PM,80.6,69.8,70,30.06,10.0,ENE,8.1,-,N/A,,Mostly Cloudy,70,2012-09-24 00:53:00
9:53 PM,78.8,71.6,78,30.08,10.0,ESE,5.8,-,N/A,,Scattered Clouds,110,2012-09-24 01:53:00
10:53 PM,78.8,71.6,78,30.08,10.0,ENE,3.5,-,N/A,,Partly Cloudy,70,2012-09-24 02:53:00
11:53 PM,77.0,71.6,83,30.09,10.0,North,3.5,-,N/A,,Partly Cloudy,360,2012-09-24 03:53:00